www.pogodaiklimat.ru

Погода и климат >> Архив погоды >> Пакистан >> Сиалкот аэропорт


ПОГОДА в Сиалкот аэропорту

  • Прогноз погоды в Сиалкот аэропорту
  • Монитор погоды в Сиалкот аэропорту

АРХИВ ПОГОДЫ в Сиалкот аэропорту

Время (UTC), дата Ветер
(напр.,м/с)
 
Видим.   Явления Облачность Т
(С)
Тd
(С)
f
(%)
Тe
(С)
Тes
(С)
Комфортность P
(гПа)
Po
(гПа)
Тmin
(С)
Tmax
(С)
R
(мм)
R24
(мм)
S
(см)
18 19.05 СЗ 15 2000 м гроза, ливневой дождь 10/6 600 м
[Cb cap As op]
+26.0 +14.4 49 +28 +28 жарко 1011.6 982.3 0.0
21 19.05 ЮВ 8 4000 м дым {гроза, дождь} 8/4 1000 м
[Sc diur, vesp Ac As]
+25.0 +14.1 51 +27 +27 жарко 1009.5 981.2 0.0
00 20.05 СЗ 2 4000 м дым 4/4 1000 м
[Sc diur, vesp]
+22.0 +13.4 58 +25 +25 комфорт 1009.4 980.2
03 20.05 СЗ 4 н/о +28.5 +14.6 43 +31 +35 душно 1010.7 981.4 +21.1
06 20.05 СЗ 5 4000 м мгла ясно +33.5 +10.4 24 +33 +43 жарко 1010.9 981.6
09 20.05 С 6 4000 м мгла 1/1 1000 м
[Cu hum]
+37.0 +8.3 17 +35 +41 очень
жарко
1009.5 982.3
12 20.05 СЗ 5 4000 м мгла 1/1
[Cu hum]
+37.0 +9.8 19 +36 +37 очень
жарко
1007.4 978.4
00 21.05 штиль 0 4000 м дым ясно +23.0 +15.6 63 +27 +27 душно 1007.4 978.2
09 21.05 СЗ 5 4000 м мгла 1/1 1000 м
[Cu hum]
+39.0 +7.7 15 +37 +45 очень
жарко
1007.5 980.5
12 21.05 С 3 4000 м мгла ясно +39.0 +7.7 15 +37 +40 очень
жарко
1005.3 976.2 +40.3
15 21.05 С 2 4000 м мгла 3/3 1000 м
[Sc diur, vesp]
+31.0 +7.3 23 +30 +30 жарко 1005.7 978.1
18 21.05 В 2 4000 м мгла ясно +28.5 +10.0 32 +29 +29 жарко 1006.9 977.8
21 21.05 ЮВ 2 4000 м мгла 3/0
[Ac trans]
+25.0 +10.8 41 +26 +26 жарко 1005.8 977.6
03 22.05 ЮВ 3 4000 м мгла 8/4 1000 м
[Sc diur, vesp Ac As]
+30.0 +11.1 31 +30 +32 жарко 1006.6 977.5 +22.7
09 22.05 З 2 4000 м мгла 5/0
[Ac trans]
+39.0 +6.0 13 +36 +48 очень
жарко
1004.8 977.9
12 22.05 СЗ 4 4000 м мгла 9/4 1000 м
[Sc diur, vesp Ac As]
+38.0 +3.6 12 +35 +35 очень
жарко
1002.6 973.6 +41.2
15 22.05 СЗ 3 4000 м мгла 9/4 1000 м
[Sc diur, vesp Ac As]
+32.5 +11.3 27 +32 +32 жарко 1004.2 976.7
18 22.05 штиль 0 4000 м мгла 9/4 1000 м
[Sc diur, vesp Ac As]
+30.0 +13.4 36 +31 +31 жарко 1005.3 976.2
21 22.05 СЗ 2 4000 м зарница 9/5 600 м
[Cb cap Ac As]
+27.0 +13.6 44 +29 +29 жарко 1004.1 976.1
00 23.05 СЗ 5 4000 м гроза без осадков 10/6 600 м
[Cb cap As op]
+28.0 +14.9 45 +31 +31 душно 1004.2 975.1
03 23.05 СВ 6 4000 м гроза без осадков 9/6 600 м
[Cb cap Ac As]
+27.5 +15.3 47 +30 +31 жарко 1005.8 976.7 +25.4 0.0
06 23.05 СВ 6 4000 м мгла {гроза, дождь} 5/1 1000 м
[Sc diur, vesp Ac trans]
+32.0 +14.1 34 +34 +39 душно 1007.2 978.0
09 23.05 СВ 3 4000 м мгла 8/4 1000 м
[Sc diur, vesp Ac As]
+35.5 +13.7 27 +36 +41 очень
жарко
1005.7 978.5
12 23.05 ЮВ 5 4000 м мгла {гроза} 8/4 1000 м
[Sc diur, vesp Ac As]
+35.0 +13.7 28 +36 +36 очень
жарко
1004.4 975.3 +36.8
15 23.05 ЮЗ 9 4000 м гроза, ливневой дождь 10/6 600 м
[Cb cap As op]
+27.5 +14.3 44 +30 +30 жарко 1005.8 977.8 0.0
18 23.05 СВ 10 4000 м гроза, ливневой дождь 10/6 600 м
[Cb cap As op]
+25.0 +15.1 54 +28 +28 жарко 1007.2 978.1 0.0
21 23.05 СЗ 14 4000 м гроза без осадков 10/6 600 м
[Cb cap As op]
+23.5 +16.2 64 +27 +27 душно 1006.7 978.3 0.0
00 24.05 СЗ 6 4000 м гроза, ливневой дождь 10/6 600 м
[Cb cap As op]
+20.5 +17.3 82 +24 +24 комфорт 1007.0 977.9 0.4
03 24.05 СВ 3 4000 м слаб. дождь {гроза} 9/4 1000 м
[Sc diur, vesp Ac As]
+22.0 +18.9 83 +27 +29 душно 1009.2 980.0 +19.6 1
06 24.05 ЮВ 5 4000 м дым {дождь} 4/0
[Ac trans]
+27.0 +17.6 56 +31 +39 душно 1009.9 980.7 0.0
09 24.05 ЮВ 5 4000 м мгла 1/1 1000 м
[Cu hum]
+30.5 +16.2 42 +34 +41 очень
душно
1008.7 980.9
12 24.05 ЮВ 2 4000 м мгла 3/3 1000 м
[Cu hum]
+32.0 +16.2 39 +35 +38 очень
душно
1006.8 977.7 +32.5
15 24.05 СВ 10 2000 м гроза без осадков 10/6 600 м
[Cb cap As op]
+23.0 +16.5 67 +28 +28 душно 1008.7 980.2 0.0
18 24.05 В 3 4000 м зарница {гроза, дождь} 10/6 600 м
[Cb cap As op]
+24.0 +17.6 67 +28 +28 душно 1008.1 978.9 0.0
21 24.05 СВ 3 4000 м зарница {гроза} 10/6 600 м
[Cb cap As op]
+21.0 +17.8 82 +26 +26 душно 1007.6 979.0
03 25.05 СВ 3 н/о +25.0 +15.1 54 +28 +34 жарко 1008.0 978.8 +18.3
09 25.05 СВ 2 4000 м мгла 3/3 1000 м
[Cu med, cong]
+33.0 +12.1 28 +33 +45 жарко 1006.5 979.0
12 25.05 С 2 4000 м мгла 1/1 1000 м
[Cu hum]
+33.5 +11.7 27 +34 +37 очень
жарко
1004.6 975.5 +34.5
18 25.05 СЗ 2 4000 м мгла ясно +27.0 +12.5 41 +29 +29 жарко 1005.0 975.9
21 25.05 СВ 2 4000 м дым ясно +24.0 +12.8 50 +26 +26 жарко 1004.2 976.0
00 26.05 штиль 0 4000 м дым 3/0
[Ac trans]
+21.5 +14.4 64 +24 +24 комфорт 1004.1 975.0
03 26.05 ЮВ 2 4000 м мгла 3/0
[Ac trans]
+29.0 +15.3 43 +32 +38 душно 1005.1 976.0 +21.0
06 26.05 СЗ 4 4000 м мгла 3/3 1000 м
[Sc diur, vesp]
+35.0 +12.9 26 +35 +44 очень
жарко
1005.3 976.2
09 26.05 СЗ 5 4000 м мгла 3/3 1000 м
[Sc diur, vesp]
+37.0 +11.1 21 +36 +42 очень
жарко
1004.6 977.5
12 26.05 СЗ 5 4000 м мгла 3/3 1000 м
[Cu med, cong]
+37.5 +10.7 20 +36 +38 очень
жарко
1003.1 974.1 +38.6

 

Местоположение метеостанции Сиалкот аэропорт (Пакистан): широта 32.53 долгота 74.03 высота над уровнем моря 248 м.

В архиве по умолчанию представлена погода в Сиалкот аэропорту за последнюю неделю. Архивные данные за месяц целиком и за предыдущие месяцы, начиная с января 2011 года, Вы можете получить, выбрав интересующий диапазон дат из раскрывающегося списка и нажав кнопку "Ввод!".


*Определитесь, кто Вы:
робот инопланетянин человек

Внимание! Время в таблицах - всемирное. Для получения местного времени необходимо прибавить поправку, которая равна 5 ч.

Смотрите также архив погоды в соседних городах и на ближайших метеорологических станциях:

Погода в Гуджрате (Пакистан) (7 км)
Погода в Гуджранвале (Пакистан) (42 км)
Погода в Сиялкоте (Пакистан) (47 км)
Погода в Джеламе (Пакистан) (53 км)
Погода в Хафизабаде (Пакистан) (61 км)
Погода в Мангле (Пакистан) (71 км)
Погода в Джамму (Джамму и Кашмир, Индия) (77 км)
Погода в Наровале (Пакистан) (91 км)
Погода в Катре (Джамму и Кашмир, Индия) (99 км)
Погода в Лахоре (Пакистан) (113 км)

Пояснения к столбцам:

Ветер - указаны скорость ветра в м/с - средняя за 10 мин, порывы в срок и между сроками (в фигурных скобках) и направление, откуда дует ветер: С - северный, СВ - северо-восточный, В - восточный, ЮВ - юго-восточный, Ю - южный, ЮЗ - юго-западный, З - западный, СЗ - северо-западный.
Видимость - горизонтальная дальность видимости в метрах или километрах. При видимости от 1 до 10 км при отсутствии осадков обычно наблюдается дымка, при ухудшении видимости до 1 км и менее - туман. В сухую погоду видимость может ухудшаться дымом, пылью или мглою.
Явления - указаны атмосферные явления, наблюдавшиеся в срок или в последний час перед сроком; фигурными скобками обозначены явления, наблюдавшиеся между сроками (за 1-3 часа до срока); квадратными скобками обозначены град или гололедные отложения с указанием их диаметра в мм.
Облачность - указаны через наклонную черту общая и нижняя облачность в баллах и высота нижней границы облаков в метрах; квадратными скобками обозначены формы облаков: Ci - перистые, Cs - перисто-слоистые, Cc - перисто-кучевые, Ac - высококучевые, As - высокослоистые, Sc - слоисто-кучевые, Ns - слоисто-дождевые, Cu - кучевые, Cb - кучево-дождевые. Подробнее классификацию облаков см. в Атласе облаков (PDF).
T - Температура воздуха - температура, измеренная на высоте 2 м над землей.
Td - Температура точки росы - температура, при понижении до которой содержащийся в воздухе водяной пар достигнет насыщения.
f - Относительная влажность воздуха - влажноcть воздуха, измеренная на высоте 2 м над землей.
Te - Эффективная температура - температура, которую ощущает одетый по сезону человек в тени. Характеристика душности погоды. При расчете учитывается влияние влажности воздуха и скорости ветра на теплоощущения человека.
Tes - Эффективная температура на солнце - температура, которую ощущает человек, с поправкой на солнечный нагрев. Характеристика знойности погоды. Зависит от высоты солнца над горизонтом, облачности и скорости ветра. Ночью, в пасмурную погоду, а также при ветре 12 м/с и более поправка равна нулю.
P - Атмосферное давление - приведенное к уровню моря атмосферное давление.
Po - Атмосферное давление - измеренное на уровне метеостанции атмосферное давление.
Tmin - Минимальная температура - минимум температуры воздуха на высоте 2 м над землей.
Tmax - Максимальная температура - максимум температуры воздуха на высоте 2 м над землей.
R - Количество осадков - Количество выпавших осадков за период времени, мм. При наведении курсора мыши на число - период времени, за который выпало указанное количество осадков.
R24 - Количество осадков - Количество выпавших осадков за 24 часа, мм.
S - Снежный покров - Высота снежного покрова, см. При наведении курсора мыши на число - состояние снежного покрова и степень покрытия местности в баллах.